Theta_e
338 344 340 341 340 338 337 334 334 333 332 332 333 335 335 336 338 341 340 338 338 337 335 334 332 329 332 335 337 336 335 335 335 334 331 330 331 332 334 340 341 341 338
338 344 341 341 340 338 337 335 334 334 334 336 335 339 339 338 337 340 338 337 337 336 333 328 325 322 323 326 331 332 333 333 332 331 337 337 332 331 328 327 334 339 340
338 343 343 342 341 338 337 336 335 334 333 332 331 332 334 334 332 340 337 337 337 337 333 326 323 321 320 320 321 325 328 332 333 333 335 336 337 336 333 330 328 328 335
336 342 344 342 342 339 338 336 336 335 334 331 329 328 328 329 337 338 335 337 337 336 335 330 326 322 319 316 315 319 322 327 330 335 333 333 337 333 335 332 330 331 333
336 341 344 342 341 340 341 337 336 336 335 334 332 331 330 330 334 334 334 337 333 331 330 328 329 325 320 312 308 309 315 322 329 332 332 333 337 334 333 333 333 330 328
337 340 344 342 341 340 339 337 335 337 337 335 334 333 335 333 330 331 334 334 331 329 324 320 326 324 316 307 305 306 310 318 329 330 330 332 334 335 334 333 332 329 327
337 338 343 340 340 341 340 337 337 337 338 337 335 333 336 333 330 331 333 334 331 329 325 320 318 318 311 303 304 306 309 317 325 327 328 330 330 332 332 330 330 329 327
337 339 341 339 339 340 339 340 339 339 338 336 336 333 336 334 330 330 331 330 330 327 325 321 314 314 308 301 303 306 307 316 319 323 325 328 327 327 327 327 328 328 327
334 338 339 339 338 338 339 339 339 339 339 337 337 336 334 335 333 331 330 330 328 327 327 325 325 313 307 300 301 304 307 312 317 319 319 322 321 322 321 320 318 321 325
318 322 326 335 338 340 341 338 337 338 339 338 337 336 334 335 334 333 332 331 330 329 328 327 326 325 312 301 300 301 304 308 310 311 314 311 313 318 319 319 317 319 320
312 312 315 319 325 334 337 338 338 338 339 339 337 335 335 337 336 335 333 331 329 329 327 326 325 324 323 312 300 299 303 305 306 307 307 303 306 314 317 317 318 318 319
311 311 311 312 316 324 332 336 336 339 339 339 339 338 337 337 336 335 332 331 330 331 328 326 325 324 321 314 306 303 302 301 304 304 304 301 301 308 316 319 318 318 320
310 311 312 312 313 315 325 334 336 334 335 337 338 338 337 336 334 333 331 330 329 329 327 326 325 323 322 319 314 307 303 303 304 304 304 301 301 302 315 318 319 320 321
310 312 313 314 315 317 316 332 333 333 333 337 336 336 335 334 332 332 331 331 330 329 328 327 326 323 321 320 320 316 310 304 302 302 303 301 300 300 303 317 320 320 320
311 312 314 315 317 319 317 328 331 332 334 333 332 330 332 333 332 332 332 331 329 328 327 327 326 324 322 321 319 318 316 315 312 307 302 301 300 299 300 309 318 322 322
310 313 313 315 319 316 321 330 332 332 330 330 328 328 329 330 331 330 330 328 328 327 326 326 325 324 322 320 317 318 316 315 316 313 309 306 305 301 299 299 306 314 318
310 311 313 314 318 323 326 328 330 330 328 327 327 327 328 328 327 327 326 325 325 324 325 324 323 322 320 319 317 317 315 311 311 308 307 306 304 304 303 299 299 300 302
310 314 315 314 318 320 322 324 323 323 324 324 323 323 322 323 324 323 322 321 321 322 320 320 319 319 317 317 317 315 316 314 311 309 307 306 305 304 303 302 298 297 298
309 311 313 313 318 320 321 321 321 319 317 315 316 316 317 318 319 319 318 316 315 315 315 314 314 314 311 310 310 312 313 312 311 309 307 303 301 300 300 299 299 299 298
308 310 311 312 315 317 319 318 317 317 316 313 309 305 308 309 309 310 309 309 308 308 307 310 310 308 306 305 307 310 311 310 307 305 303 302 300 301 300 300 300 299 298
308 307 308 309 310 310 308 305 304 302 301 299 299 300 302 303 303 303 302 303 303 302 303 304 307 306 303 303 307 307 309 305 304 305 302 301 301 301 301 301 300 300 300
307 305 304 306 307 306 306 304 302 299 297 296 294 295 296 298 297 297 297 297 297 296 296 297 300 303 302 300 302 306 310 307 304 303 302 301 299 293 296 294 295 295 297
304 305 304 304 304 304 302 300 298 296 295 294 292 291 291 292 293 293 292 291 291 290 289 290 291 293 295 296 295 300 304 304 300 302 301 295 294 290 292 294 288 291 292
301 301 301 301 302 301 300 300 299 298 294 292 290 289 289 289 289 288 288 288 288 288 288 288 289 289 290 290 291 292 292 296 296 295 293 293 290 290 289 292 287 293 291
298 299 299 298 297 298 299 298 296 293 291 290 289 288 287 287 287 287 287 287 287 286 286 286 286 287 287 288 288 289 289 289 290 289 290 289 289 288 289 287 289 289 290
295 295 296 295 295 294 294 294 294 292 291 290 289 288 288 287 286 286 286 286 285 285 285 284 284 284 285 285 286 286 287 287 287 287 288 288 288 287 287 288 289 288 289
Wind_Speed
7 13 14 12 10 11 10 11 11 11 10 11 12 12 12 11 11 11 14 13 13 14 14 14 14 13 13 13 12 11 11 11 12 13 13 12 12 12 13 13 15 15 13
10 13 16 14 11 11 11 10 10 10 10 10 10 10 10 9 10 10 11 11 12 13 13 13 12 12 12 11 10 9 9 9 10 12 11 14 12 12 12 12 11 13 16
9 13 15 15 12 12 12 11 9 8 8 9 9 9 8 7 7 8 8 9 11 13 12 12 11 10 10 9 9 8 8 7 8 12 11 8 10 12 12 12 12 11 10
8 12 13 16 12 12 11 10 8 8 7 7 7 7 6 7 8 8 7 9 10 11 11 8 8 9 9 7 7 6 6 7 9 11 8 8 10 10 11 13 12 12 12
9 11 12 16 14 13 11 11 10 8 7 6 6 6 5 6 6 5 6 7 7 9 11 11 7 8 8 8 7 5 5 6 9 8 7 6 8 9 10 9 10 11 11
6 9 10 14 13 12 12 10 9 8 8 6 5 5 6 6 6 5 6 6 7 9 13 14 9 9 9 9 7 6 5 7 9 5 6 8 8 11 10 9 8 9 10
5 6 6 13 12 11 9 7 6 7 7 6 5 5 5 6 6 7 7 5 5 8 12 15 12 10 9 9 9 8 6 7 7 6 6 7 7 7 6 5 5 6 8
6 5 6 11 13 11 10 9 8 6 6 4 3 3 4 5 5 6 5 4 4 6 10 13 14 13 12 10 9 8 8 10 7 6 6 6 6 9 9 7 5 6 6
7 6 4 5 9 14 12 12 11 9 8 5 4 3 2 4 3 4 4 3 4 6 9 13 15 15 13 10 9 8 8 9 7 7 7 4 6 10 10 9 7 7 8
7 6 4 1 4 8 11 14 14 13 10 9 7 6 4 6 5 4 3 3 4 5 8 12 15 16 14 10 9 9 8 10 8 7 6 6 5 9 9 9 9 8 7
5 5 3 1 1 3 6 8 11 13 11 10 8 8 7 6 6 6 5 2 2 2 4 8 12 16 14 12 9 8 8 7 8 8 6 7 6 8 9 9 9 8 7
6 6 6 5 4 5 7 7 10 9 9 9 10 10 10 8 6 7 4 1 2 2 3 4 6 10 10 9 9 9 6 7 7 7 7 8 8 9 11 10 9 8 6
8 7 8 7 6 5 5 7 8 11 11 8 8 7 7 8 8 8 4 4 4 2 3 2 3 4 6 7 8 8 8 9 7 6 7 9 9 8 10 10 8 7 6
8 9 9 9 7 5 4 5 7 8 7 4 1 1 0 5 5 4 5 6 5 5 4 3 4 4 3 5 7 7 7 6 5 6 8 10 10 10 10 10 9 6 7
7 8 9 7 5 3 1 4 5 5 5 7 8 5 2 2 2 0 2 5 5 3 1 3 4 4 3 3 3 5 6 8 8 7 6 9 9 9 9 11 10 8 7
8 9 8 7 6 3 9 13 14 13 10 6 6 6 5 3 1 1 2 5 5 4 3 4 5 3 4 3 4 4 4 4 7 8 8 10 11 10 9 8 8 10 10
8 9 9 9 7 9 11 15 17 14 13 12 9 6 6 5 7 6 4 3 1 2 3 3 4 3 3 4 5 7 6 6 5 5 6 7 8 12 11 10 10 10 9
6 8 9 9 11 13 17 20 20 19 18 16 14 12 10 10 8 7 8 8 6 3 3 2 2 1 3 4 5 7 8 7 5 7 7 7 8 7 8 13 11 10 9
5 7 9 11 16 19 21 23 24 23 21 20 18 17 16 17 15 15 15 15 14 13 12 10 10 8 9 9 9 9 9 8 6 3 6 8 8 9 10 12 13 11 11
6 8 11 14 19 24 26 26 26 23 21 19 18 16 16 16 15 14 14 13 11 12 12 9 9 8 10 11 9 8 6 5 5 7 9 9 12 13 14 16 16 15 15
8 9 11 14 18 20 22 20 21 20 16 17 17 15 14 15 14 13 13 13 14 16 14 14 9 11 15 21 9 9 2 7 7 11 8 10 15 16 17 18 17 18 19
8 8 8 12 14 11 13 15 13 15 16 16 17 19 18 17 17 17 16 16 15 15 17 18 16 11 13 19 9 7 2 4 10 6 8 13 14 19 19 20 18 20 20
10 10 8 9 9 9 13 18 21 19 18 16 16 18 19 20 20 20 19 18 18 18 19 19 18 17 13 14 21 9 3 4 13 5 6 17 15 24 15 15 29 20 20
10 9 9 9 11 11 11 13 15 15 18 16 16 17 18 18 19 19 19 18 19 18 18 17 15 16 14 15 7 12 9 5 3 5 10 9 20 17 23 14 30 17 21
10 11 10 10 10 10 10 13 17 19 18 16 17 17 17 17 17 18 17 17 17 17 16 15 15 15 14 12 10 9 8 9 7 6 6 18 20 19 11 28 15 21 18
9 10 11 12 12 13 13 13 16 19 18 18 16 14 12 12 14 16 16 16 15 14 13 13 12 12 11 10 7 8 7 5 8 7 9 16 19 16 24 15 18 18 17
Wind_Direction
151 157 158 147 149 144 136 130 124 114 112 109 106 104 101 94 92 85 88 68 64 70 68 66 62 62 62 66 71 67 64 64 63 61 56 53 57 54 58 60 56 57 58
150 159 161 153 162 152 146 138 129 124 117 112 111 111 103 98 93 100 82 68 70 73 69 65 61 59 59 60 62 59 63 61 61 62 63 46 45 49 49 51 61 59 60
153 160 163 161 169 162 156 150 140 125 119 113 113 112 108 102 96 107 82 77 77 72 58 60 60 61 57 54 52 52 56 59 60 69 54 62 47 46 45 46 48 52 56
161 164 165 166 172 170 164 159 148 141 132 125 121 116 113 106 107 110 82 98 77 60 54 28 48 46 43 42 44 48 55 59 70 55 45 41 59 35 44 42 42 50 43
150 165 177 181 176 172 176 171 162 155 147 137 126 118 113 110 115 104 92 97 69 48 25 20 43 36 31 27 32 35 50 64 72 55 54 44 44 54 56 58 44 39 37
133 171 192 190 179 185 186 182 178 172 165 153 136 126 120 116 106 102 109 85 43 24 21 24 38 34 24 24 34 43 53 77 57 53 60 50 53 57 60 55 43 32 28
120 158 192 191 188 199 204 199 203 196 185 169 156 141 145 130 117 120 121 111 38 13 19 21 24 29 26 31 33 40 58 83 64 61 57 43 39 29 32 42 24 17 8
109 122 164 203 199 205 214 202 212 225 224 199 180 172 174 149 121 120 115 101 64 24 20 24 24 23 19 26 40 46 53 70 47 54 55 37 44 23 17 8 357 351 350
95 116 134 181 227 213 211 216 214 220 235 229 218 229 234 179 144 134 118 94 59 38 26 26 26 25 21 22 30 39 48 65 44 46 49 14 49 22 19 15 6 357 353
58 58 58 135 203 219 223 228 221 215 228 236 231 246 245 206 201 170 126 94 33 6 13 14 18 21 22 24 23 26 39 37 30 36 29 23 21 15 11 10 10 7 0
41 31 18 357 327 246 233 234 234 230 234 236 244 249 237 217 215 187 179 230 296 326 359 11 7 12 13 21 20 22 33 22 26 25 3 7 359 10 9 3 3 4 4
12 5 1 339 284 237 223 222 224 227 232 236 233 230 218 223 210 178 196 217 314 321 338 8 8 14 31 23 8 17 16 18 20 19 343 356 354 3 6 3 358 1 7
0 1 356 348 325 291 233 208 212 215 223 234 242 240 219 199 189 192 215 243 254 232 283 313 352 74 20 35 22 16 10 13 12 2 333 348 348 353 6 3 357 354 357
8 2 356 353 347 328 283 233 205 205 214 222 225 127 225 214 226 233 231 243 234 228 242 273 297 325 13 23 18 17 9 10 353 356 339 345 348 348 349 4 1 351 344
15 6 3 2 358 4 116 187 175 179 101 86 68 49 64 49 19 301 224 242 240 238 229 272 276 302 326 344 354 8 11 7 354 338 330 327 339 346 351 359 5 1 352
15 13 13 30 55 113 133 160 154 163 150 126 88 57 52 16 318 345 156 191 212 209 214 234 266 257 296 320 331 329 331 343 340 343 338 333 331 326 326 329 346 353 346
18 22 38 45 78 117 131 144 139 144 140 137 128 117 104 100 84 88 103 87 17 316 261 267 307 327 326 315 319 308 302 308 314 322 334 338 338 340 332 320 319 317 315
43 49 63 71 95 112 117 115 109 107 104 101 96 89 84 93 101 100 82 71 61 62 34 32 16 346 336 324 301 290 305 312 317 330 342 338 337 335 344 328 331 324 314
79 95 99 108 117 122 122 116 112 106 96 87 85 79 83 84 83 86 83 77 67 62 56 45 42 40 20 360 337 325 318 322 328 350 357 352 1 6 8 353 349 346 328
107 115 118 118 124 126 126 122 118 114 110 106 96 82 75 73 72 70 68 66 61 55 48 40 38 32 22 352 330 322 327 352 16 42 36 38 39 26 17 9 6 358 351
122 127 131 131 130 124 116 106 101 95 94 93 89 84 90 92 82 72 65 58 57 58 46 39 41 28 20 11 2 355 33 72 75 24 43 38 22 18 9 1 352 346 338
129 125 127 135 138 140 132 129 122 113 103 100 93 86 81 82 84 83 81 74 67 61 58 51 47 43 38 30 7 309 14 150 12 63 42 28 20 3 9 2 3 351 343
142 141 144 138 130 127 128 126 121 113 105 99 89 87 84 86 86 87 84 80 76 70 62 58 52 52 40 39 41 35 356 2 340 30 40 5 2 352 349 357 345 349 351
141 138 134 131 127 130 134 133 129 127 118 111 104 98 91 89 87 83 82 78 75 71 65 58 55 54 53 36 30 41 40 10 351 321 340 345 351 347 335 326 339 340 345
137 138 140 142 135 129 131 136 126 119 116 115 110 103 95 91 90 89 87 84 78 73 68 63 59 56 53 50 39 21 16 355 23 315 310 328 329 332 326 322 331 327 333
136 134 140 137 129 127 126 128 130 131 131 129 124 115 109 101 90 86 85 85 84 80 73 66 58 54 55 53 49 37 29 358 341 329 315 317 318 324 320 334 319 315 313